Location: Voyageurs National Park
(48.5020°N, 92.9292°W)
Time: 23:25:34
(UTC-05:00)

Amateur Radio Satellites - All Passes

Search period start: 01 September 2014 22:55
Search period end: 02 September 2014 22:55
Location: Voyageurs National Park, 48.5020°N, 92.9292°W

Satellite Date Start Highest point End Downlink Frequencies (MHz)
Time Altitude Azimuth
AO-40 01 Sep 23:02:04 03:56:19 31° 158° (SSE) 05:38:16 Beacon 2401.320
Sapphire 01 Sep 23:21:13 23:24:25 16° 23° (NNE) 23:27:37 437.095 MHz 1200 baud AX-25 AFSK
Saudisat 1A 01 Sep 23:23:34 23:27:59 79° 310° (NW) 23:32:26 436.775 MHz
FUNcube-1 01 Sep 23:23:51 23:27:40 33° 264° (W) 23:31:35 145.950 - 145.970 MHz USB
HO-68 01 Sep 23:31:31 23:34:16 12° 277° (W) 23:37:02 435.675 MHz FM
MaSat-1 01 Sep 23:43:22 23:46:27 18° 258° (WSW) 23:49:17 437.345 MHz
PCSat 01 Sep 23:50:15 23:54:19 21° 31° (NNE) 23:58:21 145.825 MHz
KITSAT 1 02 Sep 00:21:42 00:29:49 90° 320° (NW) 00:37:58 435.175 FM
Sapphire 02 Sep 01:04:00 01:09:15 46° 47° (NE) 01:14:28 437.095 MHz 1200 baud AX-25 AFSK
Saudisat 1A 02 Sep 01:05:03 01:08:16 19° 331° (NNW) 01:11:29 436.775 MHz
PCSat 02 Sep 01:33:11 01:38:39 75° 54° (NE) 01:44:05 145.825 MHz
Oscar 19 02 Sep 01:38:50 01:42:12 17° 89° (E) 01:45:32 437.125 CW, 437.150 USB
Oscar 10/S400 02 Sep 02:12:23 03:10:06 40° 215° (SW) 08:32:04 145.825 - 145.975 CW/USB, Beacon 145.810 USB
Oscar 16 02 Sep 02:13:13 02:17:58 34° 96° (E) 02:22:39 437.025 USB, Beacon 2401.1428
ITAMSAT 1 02 Sep 02:16:39 02:19:55 17° 89° (E) 02:23:11 435.822 SSB
KITSAT 1 02 Sep 02:19:02 02:26:15 34° 330° (NNW) 02:33:30 435.175 FM
Uribyol 2 02 Sep 02:25:32 02:29:27 21° 91° (E) 02:33:20 436.500 FM
JAS-1B 02 Sep 02:31:08 02:36:23 24° 87° (E) 02:41:07 435.800 - 435.900 CW/SSB
AO-27 02 Sep 02:45:29 02:50:01 29° 95° (E) 02:54:31 436.795 MHz FM
Sapphire 02 Sep 02:47:40 02:52:34 35° 247° (WSW) 02:57:27 437.095 MHz 1200 baud AX-25 AFSK
Saudisat 1A 02 Sep 02:49:18 02:49:35 10° 355° (N) 02:49:52 436.775 MHz
Oscar 19 02 Sep 03:16:55 03:22:08 75° 287° (WNW) 03:27:18 437.125 CW, 437.150 USB
PCSat 02 Sep 03:17:38 03:21:29 20° 253° (WSW) 03:25:20 145.825 MHz
OPAL 02 Sep 03:20:10 03:24:09 23° 57° (ENE) 03:28:10 ?
AO-Echo 02 Sep 03:25:09 03:29:51 70° 103° (ESE) 03:34:34 ?
Gurwin Techsat 1B 02 Sep 03:27:05 03:31:53 33° 95° (E) 03:36:38 435.225 FM
Oscar 16 02 Sep 03:52:34 03:57:21 38° 294° (WNW) 04:02:07 437.025 USB, Beacon 2401.1428
ITAMSAT 1 02 Sep 03:54:49 04:00:01 76° 287° (WNW) 04:05:12 435.822 SSB
SO-50 02 Sep 04:03:34 04:08:01 69° 125° (SE) 04:12:37 436.795 FM
Uribyol 2 02 Sep 04:04:12 04:09:20 61° 290° (WNW) 04:14:27 436.500 FM
TMSAT-1 02 Sep 04:16:45 04:22:03 64° 102° (ESE) 04:27:18 436.925 FM
KITSAT 1 02 Sep 04:18:20 04:24:25 22° 359° (N) 04:30:30 435.175 FM
Uosat F 02 Sep 04:19:13 04:21:52 14° 88° (E) 04:24:31 435.120 FM
JAS-1B 02 Sep 04:21:00 04:27:51 64° 292° (WNW) 04:33:43 435.800 - 435.900 CW/SSB
AO-27 02 Sep 04:24:47 04:29:41 43° 293° (WNW) 04:34:34 436.795 MHz FM
Saudisat 1A 02 Sep 04:28:47 04:31:07 14° 20° (NNE) 04:33:26 436.775 MHz
AO-7 02 Sep 04:32:09 04:39:00 28° 92° (E) 04:45:47 29.400 - 29.500 MHz
OPAL 02 Sep 04:57:35 05:02:37 62° 256° (WSW) 05:07:46 ?
Oscar 19 02 Sep 04:58:05 05:00:37 14° 307° (NW) 05:03:08 437.125 CW, 437.150 USB
AO-Echo 02 Sep 05:05:05 05:08:09 17° 302° (WNW) 05:11:12 ?
Gurwin Techsat 1B 02 Sep 05:06:59 05:11:56 40° 294° (WNW) 05:16:51 435.225 FM
STRAND 1 02 Sep 05:10:26 05:12:22 12° 52° (NE) 05:14:19 ?
ITAMSAT 1 02 Sep 05:36:06 05:38:41 14° 307° (NW) 05:41:17 435.822 SSB
SO-50 02 Sep 05:45:13 05:49:02 26° 327° (NNW) 05:52:56 436.795 FM
Uribyol 2 02 Sep 05:46:12 05:47:49 11° 309° (NW) 05:49:25 436.500 FM
UOSAT-12 02 Sep 05:49:01 05:53:36 65° 125° (SE) 05:58:18 437.025 FM, 437.400 FM
Uosat F 02 Sep 05:56:17 06:01:19 84° 287° (WNW) 06:06:20 435.120 FM
TMSAT-1 02 Sep 05:57:30 06:01:32 23° 301° (WNW) 06:05:34 436.925 FM
Saudisat 1A 02 Sep 06:07:36 06:11:50 42° 43° (NE) 06:16:02 436.775 MHz
JAS-1B 02 Sep 06:13:20 06:16:56 15° 317° (NW) 06:20:17 435.800 - 435.900 CW/SSB
KITSAT 1 02 Sep 06:15:30 06:22:39 32° 28° (NNE) 06:29:45 435.175 FM
AO-7 02 Sep 06:24:18 06:32:36 77° 293° (WNW) 06:40:51 29.400 - 29.500 MHz
RS-15 02 Sep 06:28:18 06:36:23 24° 101° (ESE) 06:44:21 29.354 - 29.394 USB, Beacon 29.352 USB
STRAND 1 02 Sep 06:45:36 06:50:39 67° 71° (ENE) 06:55:43 ?
Hamsat 02 Sep 06:57:23 07:01:40 51° 99° (E) 07:05:52 145.90 MHz
JAS-2 02 Sep 07:12:05 07:17:17 62° 102° (ESE) 07:22:53 435.800 - 435.900 CW/SSB, 435.910 FM
SO-50 02 Sep 07:29:27 07:31:13 12° 351° (N) 07:33:00 436.795 FM
UOSAT-12 02 Sep 07:30:08 07:34:09 27° 325° (NW) 07:38:14 437.025 FM, 437.400 FM
Uosat F 02 Sep 07:36:42 07:39:22 15° 306° (NW) 07:42:03 435.120 FM
SO-67 02 Sep 07:37:10 07:39:44 19° 93° (E) 07:42:18 435.3500 MHz FM
Saudisat 1A 02 Sep 07:47:25 07:51:19 31° 242° (WSW) 07:55:12 436.775 MHz
KITSAT 1 02 Sep 08:11:04 08:19:13 85° 53° (NE) 08:27:18 435.175 FM
AO-7 02 Sep 08:18:06 08:24:12 24° 315° (NW) 08:30:17 29.400 - 29.500 MHz
STRAND 1 02 Sep 08:26:50 08:30:20 19° 270° (W) 08:33:51 ?
Hamsat 02 Sep 08:34:06 08:37:17 20° 298° (WNW) 08:40:26 145.90 MHz
RS-15 02 Sep 08:36:01 08:47:03 83° 125° (SE) 08:58:01 29.354 - 29.394 USB, Beacon 29.352 USB
JAS-2 02 Sep 08:58:08 09:02:05 22° 300° (WNW) 09:06:13 435.800 - 435.900 CW/SSB, 435.910 FM
HO-68 02 Sep 09:02:24 09:07:36 21° 89° (E) 09:12:46 435.675 MHz FM
SO-67 02 Sep 09:09:46 09:12:52 31° 290° (WNW) 09:15:57 435.3500 MHz FM
SO-50 02 Sep 09:11:26 09:13:49 14° 16° (NNE) 09:16:13 436.795 FM
UOSAT-12 02 Sep 09:13:52 09:15:53 12° 349° (N) 09:17:54 437.025 FM, 437.400 FM
KITSAT 1 02 Sep 10:07:25 10:13:44 26° 255° (WSW) 10:20:02 435.175 FM
ISS 02 Sep 10:23:14 10:26:11 30° 144° (SE) 10:29:10 145.800 FM
UKube-1 02 Sep 10:32:03 10:36:18 49° 100° (E) 10:40:31 145.840 MHz, 145.915 MHz
Oscar 11 02 Sep 10:35:18 10:39:24 38° 97° (E) 10:43:28 145.825 FM, Beacon 2401.500 USB
HO-68 02 Sep 10:48:59 10:56:12 86° 289° (WNW) 11:03:22 435.675 MHz FM
RS-15 02 Sep 10:50:16 11:00:35 44° 333° (NNW) 11:10:58 29.354 - 29.394 USB, Beacon 29.352 USB
SO-50 02 Sep 10:51:24 10:55:46 35° 39° (NE) 11:00:11 436.795 FM
UOSAT-12 02 Sep 10:55:47 10:58:05 13° 14° (NNE) 11:00:22 437.025 FM, 437.400 FM
FUNcube-1 02 Sep 11:08:31 11:12:44 36° 97° (E) 11:16:59 145.950 - 145.970 MHz USB
JAS-1B 02 Sep 11:34:10 11:37:11 12° 39° (NE) 11:40:05 435.800 - 435.900 CW/SSB
Oscar 16 02 Sep 11:58:10 12:00:29 13° 52° (NE) 12:02:49 437.025 USB, Beacon 2401.1428
MaSat-1 02 Sep 11:58:50 12:01:19 14° 100° (E) 12:03:51 437.345 MHz
ISS 02 Sep 11:59:26 12:02:46 69° 343° (NNW) 12:06:06 145.800 FM
UKube-1 02 Sep 12:08:57 12:12:12 21° 299° (WNW) 12:15:26 145.840 MHz, 145.915 MHz
Oscar 11 02 Sep 12:11:48 12:15:26 26° 295° (WNW) 12:19:03 145.825 FM, Beacon 2401.500 USB
SO-50 02 Sep 12:31:54 12:36:29 47° 239° (WSW) 12:41:07 436.795 FM
AO-27 02 Sep 12:31:55 12:33:49 12° 51° (NE) 12:35:43 436.795 MHz FM
UOSAT-12 02 Sep 12:35:24 12:39:41 32° 38° (NE) 12:43:55 437.025 FM, 437.400 FM
HO-68 02 Sep 12:37:45 12:43:00 23° 310° (NW) 12:48:15 435.675 MHz FM
FUNcube-1 02 Sep 12:45:07 12:49:02 29° 294° (WNW) 12:53:00 145.950 - 145.970 MHz USB
Oscar 19 02 Sep 12:58:58 13:03:39 36° 65° (ENE) 13:08:23 437.125 CW, 437.150 USB
AO-Echo 02 Sep 13:04:48 13:08:24 21° 60° (ENE) 13:11:57 ?
RS-15 02 Sep 13:06:38 13:16:22 35° 7° (N) 13:26:17 29.354 - 29.394 USB, Beacon 29.352 USB
Gurwin Techsat 1B 02 Sep 13:15:29 13:18:04 14° 53° (NE) 13:20:38 435.225 FM
JAS-1B 02 Sep 13:17:13 13:25:47 41° 61° (ENE) 13:33:19 435.800 - 435.900 CW/SSB
MaSat-1 02 Sep 13:32:29 13:37:31 84° 119° (ESE) 13:42:43 437.345 MHz
Oscar 16 02 Sep 13:33:48 13:38:57 71° 72° (ENE) 13:44:08 437.025 USB, Beacon 2401.1428
ISS 02 Sep 13:36:32 13:39:47 47° 3° (N) 13:43:01 145.800 FM
ITAMSAT 1 02 Sep 13:37:55 13:42:38 37° 65° (ENE) 13:47:21 435.822 SSB
Uribyol 2 02 Sep 13:46:53 13:51:46 46° 67° (ENE) 13:56:42 436.500 FM
AO-7 02 Sep 13:47:05 13:51:53 17° 37° (NE) 13:56:41 29.400 - 29.500 MHz
TMSAT-1 02 Sep 14:03:07 14:07:16 24° 60° (ENE) 14:11:25 436.925 FM
AO-27 02 Sep 14:07:15 14:12:22 65° 71° (ENE) 14:17:31 436.795 MHz FM
UOSAT-12 02 Sep 14:15:27 14:20:04 51° 238° (WSW) 14:24:35 437.025 FM, 437.400 FM
Oscar 19 02 Sep 14:38:15 14:42:59 36° 264° (W) 14:47:47 437.125 CW, 437.150 USB
AO-Echo 02 Sep 14:41:54 14:46:49 61° 259° (WSW) 14:51:37 ?
Gurwin Techsat 1B 02 Sep 14:51:52 14:57:09 73° 72° (ENE) 15:02:28 435.225 FM
JAS-1B 02 Sep 15:06:30 15:16:01 62° 259° (W) 15:24:24 435.800 - 435.900 CW/SSB
MaSat-1 02 Sep 15:11:11 15:15:10 22° 319° (NW) 15:19:10 437.345 MHz
ISS 02 Sep 15:13:21 15:16:42 85° 203° (SSW) 15:20:02 145.800 FM
Oscar 16 02 Sep 15:15:23 15:18:51 18° 271° (W) 15:22:20 437.025 USB, Beacon 2401.1428
ITAMSAT 1 02 Sep 15:17:27 15:22:09 35° 264° (W) 15:26:52 435.822 SSB
RS-15 02 Sep 15:20:39 15:31:31 59° 39° (NE) 15:42:41 29.354 - 29.394 USB, Beacon 29.352 USB
Uribyol 2 02 Sep 15:27:04 15:31:27 28° 266° (W) 15:35:52 436.500 FM
AO-7 02 Sep 15:34:55 15:42:54 54° 61° (ENE) 15:50:54 29.400 - 29.500 MHz
Uosat F 02 Sep 15:35:31 15:39:51 31° 63° (ENE) 15:44:13 435.120 FM
TMSAT-1 02 Sep 15:41:35 15:46:48 60° 259° (W) 15:52:04 436.925 FM
AO-27 02 Sep 15:48:39 15:52:21 20° 269° (W) 15:56:05 436.795 MHz FM
Sapphire 02 Sep 15:51:41 15:55:07 17° 105° (ESE) 15:58:33 437.095 MHz 1200 baud AX-25 AFSK
PCSat 02 Sep 16:19:15 16:23:55 31° 111° (ESE) 16:28:37 145.825 MHz
Gurwin Techsat 1B 02 Sep 16:34:08 16:37:41 18° 271° (W) 16:41:16 435.225 FM
ISS 02 Sep 16:50:40 16:53:04 19° 221° (SW) 16:55:28 145.800 FM
JAS-1B 02 Sep 17:03:04 17:07:55 15° 278° (W) 17:12:33 435.800 - 435.900 CW/SSB
OPAL 02 Sep 17:04:02 17:08:23 26° 95° (E) 17:12:42 ?
Uosat F 02 Sep 17:13:49 17:18:32 41° 262° (W) 17:23:16 435.120 FM
AO-7 02 Sep 17:28:04 17:35:53 43° 261° (W) 17:43:44 29.400 - 29.500 MHz
JAS-2 02 Sep 17:28:36 17:33:59 41° 67° (ENE) 17:38:58 435.800 - 435.900 CW/SSB, 435.910 FM
Sapphire 02 Sep 17:32:25 17:37:50 85° 304° (NW) 17:43:18 437.095 MHz 1200 baud AX-25 AFSK
RS-15 02 Sep 17:33:21 17:43:57 56° 244° (WSW) 17:54:59 29.354 - 29.394 USB, Beacon 29.352 USB
Hamsat 02 Sep 17:54:06 17:58:21 59° 72° (ENE) 18:02:40 145.90 MHz
PCSat 02 Sep 18:01:50 18:07:07 52° 311° (NW) 18:12:26 145.825 MHz
SO-67 02 Sep 18:14:52 18:16:37 14° 63° (ENE) 18:18:23 435.3500 MHz FM
OPAL 02 Sep 18:42:28 18:47:32 51° 294° (WNW) 18:52:33 ?
STRAND 1 02 Sep 18:53:29 18:56:45 17° 89° (E) 19:00:00 ?
JAS-2 02 Sep 19:13:57 19:19:13 33° 264° (W) 19:24:05 435.800 - 435.900 CW/SSB, 435.910 FM
Sapphire 02 Sep 19:17:52 19:22:04 22° 327° (NNW) 19:26:18 437.095 MHz 1200 baud AX-25 AFSK
Hamsat 02 Sep 19:31:56 19:34:43 17° 271° (W) 19:37:31 145.90 MHz
HO-68 02 Sep 19:35:29 19:41:09 27° 53° (NE) 19:46:51 435.675 MHz FM
SO-67 02 Sep 19:45:53 19:49:17 51° 260° (W) 19:52:42 435.3500 MHz FM
PCSat 02 Sep 19:48:24 19:51:49 17° 335° (NNW) 19:55:15 145.825 MHz
RS-15 02 Sep 19:49:45 19:53:37 12° 267° (W) 19:57:33 29.354 - 29.394 USB, Beacon 29.352 USB
UKube-1 02 Sep 19:59:17 19:59:57 10° 54° (NE) 20:00:37 145.840 MHz, 145.915 MHz
MaSat-1 02 Sep 20:10:49 20:13:07 13° 31° (NNE) 20:15:18 437.345 MHz
OPAL 02 Sep 20:24:27 20:25:17 10° 314° (NW) 20:26:07 ?
STRAND 1 02 Sep 20:31:24 20:36:31 74° 288° (WNW) 20:41:36 ?
Sapphire 02 Sep 21:06:11 21:07:39 11° 352° (N) 21:09:08 437.095 MHz 1200 baud AX-25 AFSK
HO-68 02 Sep 21:21:02 21:28:11 80° 254° (WSW) 21:35:23 435.675 MHz FM
UKube-1 02 Sep 21:31:02 21:35:21 71° 73° (ENE) 21:39:42 145.840 MHz, 145.915 MHz
Oscar 11 02 Sep 21:33:49 21:38:00 48° 70° (ENE) 21:42:13 145.825 FM, Beacon 2401.500 USB
PCSat 02 Sep 21:36:34 21:37:40 11° 1° (N) 21:38:47 145.825 MHz
MaSat-1 02 Sep 21:46:41 21:51:19 53° 54° (NE) 21:55:20 437.345 MHz
Saudisat 1A 02 Sep 21:57:21 22:01:02 27° 116° (ESE) 22:04:45 436.775 MHz
FUNcube-1 02 Sep 22:08:45 22:12:45 44° 70° (ENE) 22:16:53 145.950 - 145.970 MHz USB
STRAND 1 02 Sep 22:12:30 22:14:52 13° 307° (NW) 22:17:13 ?
